Location: Bun Machan
(52.1403°N, 7.3744°W)
Time: 18:03:00
(UTC+00:00)

SWARM A - Pass Details

Date: 14 July 2020
Orbit: 430 x 434 km, 87.4° (Epoch: 13 August)

Event Time Altitude Azimuth Distance (km) Brightness Sun altitude
Rises 00:52:55 0° 355° (N) 2,428 9.7 -16.1°
Reaches altitude 10° 00:54:59 10° 354° (N) 1,553 8.3 -16.1°
Maximum altitude 00:58:19 73° 270° (W) 461 4.2 -16.1°
Enters shadow 00:59:24 40° 195° (SSW) 660 4.6 -16.0°
